timestamp,wind_dir_avg,wind_spd_avg,wind_spd_max_dir,wind_spd_gust,battery_voltage,lat,long
2024-01-09 00:04:00+00:00,336.0,9.55,342.0,11.07,12.33,47.59359,-54.27349
2024-01-09 00:14:00+00:00,332.0,9.96,329.0,12.13,12.25,47.59359,-54.27349
2024-01-09 00:24:00+00:00,336.0,8.8,332.0,10.72,12.25,47.59359,-54.27349
2024-01-09 00:34:00+00:00,327.0,11.9,318.0,15.25,12.25,47.59359,-54.27349
2024-01-09 00:44:00+00:00,325.0,8.14,323.0,10.12,12.25,47.59359,-54.27349
2024-01-09 00:54:00+00:00,323.0,10.19,324.0,11.59,12.25,47.59359,-54.27349
2024-01-09 01:04:00+00:00,321.0,10.49,326.0,13.02,12.25,47.59359,-54.27349
2024-01-09 01:14:00+00:00,314.0,11.11,302.0,15.61,12.25,47.59359,-54.27349
2024-01-09 01:24:00+00:00,323.0,11.25,326.0,13.42,12.25,47.59359,-54.27349
2024-01-09 01:34:00+00:00,317.0,10.06,297.0,13.67,12.25,47.59359,-54.27349
2024-01-09 01:44:00+00:00,325.0,9.11,323.0,11.09,12.25,47.59359,-54.27349
2024-01-09 01:54:00+00:00,319.0,10.01,322.0,12.66,12.25,47.59359,-54.27349
2024-01-09 02:04:00+00:00,311.0,8.88,316.0,11.43,12.25,47.59359,-54.27349
2024-01-09 02:14:00+00:00,324.0,9.57,320.0,11.08,12.25,47.59359,-54.27349
2024-01-09 02:24:00+00:00,320.0,9.26,310.0,12.26,12.25,47.59359,-54.27349
2024-01-09 02:34:00+00:00,321.0,10.19,312.0,13.26,12.25,47.59359,-54.27349
2024-01-09 02:44:00+00:00,327.0,9.58,318.0,11.45,12.25,47.59359,-54.27349
2024-01-09 02:54:00+00:00,331.0,10.65,325.0,12.49,12.25,47.59359,-54.27349
2024-01-09 03:04:00+00:00,329.0,9.08,323.0,10.57,12.25,47.59359,-54.27349
2024-01-09 03:14:00+00:00,330.0,8.66,320.0,10.91,12.17,47.59359,-54.27349
2024-01-09 03:24:00+00:00,329.0,8.68,326.0,9.88,12.17,47.59359,-54.27349
2024-01-09 03:34:00+00:00,330.0,8.6,320.0,10.52,12.17,47.59359,-54.27349
2024-01-09 03:44:00+00:00,329.0,9.15,323.0,11.18,12.17,47.59359,-54.27349
2024-01-09 03:54:00+00:00,328.0,8.98,338.0,10.8,12.17,47.59359,-54.27349
2024-01-09 04:04:00+00:00,325.0,8.81,317.0,11.51,12.17,47.59359,-54.27349
2024-01-09 04:14:00+00:00,325.0,8.38,313.0,10.43,12.17,47.59359,-54.27349
2024-01-09 04:24:00+00:00,328.0,7.85,306.0,9.63,12.17,47.59359,-54.27349
2024-01-09 04:34:00+00:00,316.0,8.15,298.0,13.37,12.17,47.59359,-54.27349
2024-01-09 04:44:00+00:00,327.0,6.86,321.0,9.56,12.17,47.59359,-54.27349
2024-01-09 04:54:00+00:00,326.0,7.24,328.0,9.25,12.17,47.59359,-54.27349
2024-01-09 05:04:00+00:00,323.0,7.05,323.0,8.14,12.17,47.59359,-54.27349
2024-01-09 05:14:01+00:00,323.0,7.67,310.0,10.35,12.17,47.59359,-54.27349
2024-01-09 05:24:01+00:00,331.0,9.93,328.0,11.76,12.17,47.59359,-54.27349
2024-01-09 05:34:01+00:00,331.0,9.31,324.0,11.33,12.17,47.59359,-54.27349
2024-01-09 05:44:01+00:00,329.0,7.42,311.0,9.51,12.17,47.59359,-54.27349
2024-01-09 05:54:01+00:00,317.0,7.99,316.0,11.12,12.17,47.59359,-54.27349
2024-01-09 06:04:01+00:00,319.0,9.39,301.0,15.29,12.17,47.59359,-54.27349
2024-01-09 06:14:00+00:00,320.0,9.47,301.0,14.78,12.09,47.59359,-54.27349
2024-01-09 06:24:00+00:00,329.0,7.62,335.0,10.2,12.09,47.59359,-54.27349
2024-01-09 06:34:00+00:00,322.0,10.6,309.0,12.81,12.09,47.59359,-54.27349
2024-01-09 06:44:00+00:00,326.0,9.58,319.0,12.39,12.09,47.59359,-54.27349
2024-01-09 06:54:00+00:00,328.0,8.34,325.0,10.55,12.09,47.59359,-54.27349
2024-01-09 07:04:00+00:00,329.0,7.99,316.0,10.71,12.09,47.59359,-54.27349
2024-01-09 07:14:01+00:00,323.0,6.75,305.0,9.07,12.09,47.59359,-54.27349
2024-01-09 07:24:01+00:00,322.0,7.84,313.0,10.61,12.09,47.59359,-54.27349
2024-01-09 07:34:01+00:00,315.0,10.64,308.0,13.03,12.09,47.59359,-54.27349
2024-01-09 07:44:01+00:00,309.0,8.62,294.0,14.03,12.09,47.59359,-54.27349
2024-01-09 07:54:01+00:00,309.0,10.32,297.0,14.62,12.09,47.59359,-54.27349
2024-01-09 08:04:01+00:00,312.0,11.41,301.0,16.08,12.09,47.59359,-54.27349
2024-01-09 08:14:00+00:00,316.0,12.14,301.0,16.12,12.09,47.59359,-54.27349
2024-01-09 08:24:00+00:00,315.0,8.51,310.0,9.9,12.09,47.59359,-54.27349
2024-01-09 08:34:00+00:00,319.0,9.15,320.0,12.28,12.09,47.59359,-54.27349
2024-01-09 08:44:00+00:00,315.0,8.98,311.0,10.85,12.09,47.59359,-54.27349
2024-01-09 08:54:00+00:00,316.0,9.68,309.0,13.72,12.09,47.59359,-54.27349
2024-01-09 09:04:00+00:00,321.0,8.48,311.0,11.35,12.09,47.59359,-54.27349
2024-01-09 09:14:00+00:00,329.0,8.81,321.0,11.53,12.01,47.59359,-54.27349
2024-01-09 09:24:00+00:00,310.0,7.75,309.0,10.37,12.01,47.59359,-54.27349
2024-01-09 09:34:00+00:00,312.0,11.11,300.0,15.53,12.01,47.59359,-54.27349
2024-01-09 09:44:00+00:00,317.0,8.87,309.0,11.58,12.01,47.59359,-54.27349
2024-01-09 09:54:00+00:00,320.0,7.48,315.0,10.87,12.01,47.59359,-54.27349
2024-01-09 10:04:00+00:00,308.0,13.1,308.0,17.31,12.01,47.59359,-54.27349
2024-01-09 10:14:00+00:00,303.0,10.63,285.0,13.98,12.01,47.59359,-54.27349
2024-01-09 10:24:00+00:00,297.0,9.6,290.0,12.88,12.01,47.59359,-54.27349
2024-01-09 10:34:00+00:00,305.0,8.04,310.0,9.28,12.01,47.59359,-54.27349
2024-01-09 10:44:00+00:00,313.0,7.44,318.0,8.52,12.01,47.59359,-54.27349
2024-01-09 10:54:00+00:00,315.0,9.68,306.0,13.54,12.01,47.59359,-54.27349
2024-01-09 11:04:00+00:00,303.0,9.04,308.0,10.3,12.01,47.59359,-54.27349
2024-01-09 11:14:00+00:00,292.0,8.22,290.0,9.23,11.93,47.59359,-54.27349
2024-01-09 11:24:00+00:00,308.0,7.55,310.0,11.06,11.93,47.59359,-54.27349
2024-01-09 11:34:00+00:00,311.0,8.3,311.0,10.86,11.93,47.59359,-54.27349
2024-01-09 11:44:00+00:00,296.0,7.63,302.0,8.7,11.93,47.59359,-54.27349
2024-01-09 11:54:00+00:00,297.0,7.06,300.0,8.34,11.93,47.59359,-54.27349
2024-01-09 12:04:00+00:00,311.0,5.29,310.0,7.22,11.93,47.59359,-54.27349
2024-01-09 12:14:00+00:00,317.0,7.02,316.0,8.29,13.68,47.59359,-54.27349
2024-01-09 12:24:00+00:00,309.0,5.66,300.0,9.19,13.68,47.59359,-54.27349
2024-01-09 12:34:00+00:00,305.0,9.55,305.0,12.62,13.68,47.59359,-54.27349
2024-01-09 12:44:00+00:00,322.0,7.44,322.0,9.84,13.68,47.59359,-54.27349
2024-01-09 12:54:00+00:00,320.0,8.24,314.0,10.47,13.68,47.59359,-54.27349
2024-01-09 13:04:00+00:00,323.0,8.95,322.0,11.6,13.68,47.59359,-54.27349
2024-01-09 13:14:00+00:00,316.0,8.24,308.0,11.7,14.48,47.59359,-54.27349
2024-01-09 13:24:00+00:00,323.0,7.6,320.0,9.56,14.48,47.59359,-54.27349
2024-01-09 13:34:00+00:00,325.0,8.09,322.0,11.36,14.48,47.59359,-54.27349
2024-01-09 13:44:00+00:00,319.0,8.13,317.0,10.79,14.48,47.59359,-54.27349
2024-01-09 13:54:00+00:00,319.0,9.89,327.0,12.91,14.48,47.59359,-54.27349
2024-01-09 14:04:00+00:00,324.0,9.26,317.0,11.67,14.48,47.59359,-54.27349
2024-01-09 14:14:00+00:00,327.0,8.36,320.0,11.04,13.76,47.59359,-54.27349
2024-01-09 14:24:00+00:00,318.0,8.93,318.0,11.73,13.76,47.59359,-54.27349
2024-01-09 14:34:00+00:00,313.0,9.33,313.0,11.51,13.76,47.59359,-54.27349
2024-01-09 14:44:00+00:00,314.0,13.18,312.0,18.52,13.76,47.59359,-54.27349
2024-01-09 14:54:00+00:00,313.0,10.17,296.0,15.9,13.76,47.59359,-54.27349
2024-01-09 15:04:00+00:00,304.0,10.55,297.0,15.09,13.76,47.59359,-54.27349
2024-01-09 15:14:00+00:00,300.0,15.25,306.0,18.3,13.92,47.59359,-54.27349
2024-01-09 15:24:00+00:00,296.0,13.47,294.0,15.74,13.92,47.59359,-54.27349
2024-01-09 15:34:00+00:00,302.0,10.43,292.0,14.66,13.92,47.59359,-54.27349
2024-01-09 15:44:00+00:00,292.0,9.55,288.0,14.13,13.92,47.59359,-54.27349
2024-01-09 15:54:00+00:00,315.0,6.5,325.0,9.01,13.92,47.59359,-54.27349
2024-01-09 16:04:00+00:00,302.0,7.17,291.0,15.01,13.92,47.59359,-54.27349
2024-01-09 16:14:00+00:00,299.0,7.77,300.0,9.49,14.32,47.59359,-54.27349
2024-01-09 16:24:00+00:00,297.0,8.16,294.0,14.6,14.32,47.59359,-54.27349
2024-01-09 16:34:00+00:00,305.0,8.57,304.0,10.69,14.32,47.59359,-54.27349
2024-01-09 16:44:00+00:00,299.0,9.52,288.0,14.67,14.32,47.59359,-54.27349
2024-01-09 16:54:00+00:00,314.0,8.51,309.0,11.0,14.32,47.59359,-54.27349
2024-01-09 17:04:00+00:00,303.0,10.65,293.0,15.57,14.32,47.59359,-54.27349
2024-01-09 17:14:00+00:00,315.0,9.44,291.0,13.41,13.6,47.59359,-54.27349
2024-01-09 17:24:00+00:00,304.0,10.87,296.0,15.37,13.6,47.59359,-54.27349
2024-01-09 17:34:00+00:00,297.0,10.79,298.0,15.69,13.6,47.59359,-54.27349
2024-01-09 17:44:00+00:00,305.0,9.15,295.0,11.57,13.6,47.59359,-54.27349
2024-01-09 17:54:00+00:00,302.0,8.55,308.0,12.36,13.6,47.59359,-54.27349
2024-01-09 18:04:00+00:00,295.0,10.62,290.0,14.78,13.6,47.59359,-54.27349
2024-01-09 18:14:00+00:00,307.0,7.51,305.0,9.65,14.48,47.59359,-54.27349
2024-01-09 18:24:00+00:00,308.0,9.63,310.0,11.38,14.48,47.59359,-54.27349
2024-01-09 18:34:00+00:00,311.0,9.65,298.0,13.42,14.48,47.59359,-54.27349
2024-01-09 18:44:00+00:00,304.0,7.61,308.0,9.13,14.48,47.59359,-54.27349
2024-01-09 18:54:00+00:00,308.0,7.96,303.0,9.07,14.48,47.59359,-54.27349
2024-01-09 19:04:00+00:00,314.0,7.93,307.0,9.3,14.48,47.59359,-54.27349
2024-01-09 19:14:00+00:00,302.0,8.6,298.0,10.51,14.16,47.59359,-54.27349
2024-01-09 19:24:00+00:00,310.0,6.64,312.0,7.83,14.16,47.59359,-54.27349
2024-01-09 19:34:00+00:00,304.0,6.16,304.0,7.21,14.16,47.59359,-54.27349
2024-01-09 19:44:00+00:00,310.0,8.04,311.0,9.77,14.16,47.59359,-54.27349
2024-01-09 19:54:00+00:00,303.0,6.46,304.0,8.59,14.16,47.59359,-54.27349
2024-01-09 20:04:00+00:00,308.0,6.27,312.0,7.36,14.16,47.59359,-54.27349
2024-01-09 20:14:00+00:00,309.0,7.75,308.0,9.51,12.81,47.59359,-54.27349
2024-01-09 20:24:00+00:00,310.0,8.3,306.0,10.16,12.81,47.59359,-54.27349
2024-01-09 20:34:00+00:00,306.0,6.27,307.0,7.43,12.81,47.59359,-54.27349
2024-01-09 20:44:00+00:00,303.0,7.79,305.0,10.14,12.81,47.59359,-54.27349
2024-01-09 20:54:00+00:00,304.0,8.3,305.0,9.4,12.81,47.59359,-54.27349
2024-01-09 21:04:00+00:00,306.0,7.2,304.0,8.72,12.81,47.59359,-54.27349
2024-01-09 21:14:00+00:00,305.0,6.68,297.0,8.13,12.41,47.59359,-54.27349
2024-01-09 21:24:00+00:00,308.0,7.65,305.0,9.45,12.41,47.59359,-54.27349
2024-01-09 21:34:00+00:00,315.0,7.19,305.0,8.75,12.41,47.59359,-54.27349
2024-01-09 21:44:00+00:00,314.0,6.03,302.0,9.28,12.41,47.59359,-54.27349
2024-01-09 21:54:00+00:00,311.0,4.89,316.0,5.76,12.41,47.59359,-54.27349
2024-01-09 22:04:00+00:00,308.0,5.43,299.0,8.24,12.41,47.59359,-54.27349
2024-01-09 22:14:01+00:00,319.0,6.73,322.0,8.52,12.33,47.59359,-54.27349
2024-01-09 22:24:01+00:00,306.0,6.73,298.0,9.37,12.33,47.59359,-54.27349
2024-01-09 22:34:01+00:00,321.0,6.12,305.0,8.94,12.33,47.59359,-54.27349
2024-01-09 22:44:01+00:00,316.0,6.38,301.0,9.95,12.33,47.59359,-54.27349
2024-01-09 22:54:01+00:00,330.0,8.6,340.0,11.02,12.33,47.59359,-54.27349
2024-01-09 23:04:01+00:00,329.0,5.7,330.0,8.54,12.33,47.59359,-54.27349
2024-01-09 23:14:00+00:00,314.0,12.54,301.0,16.88,12.25,47.59359,-54.27349
2024-01-09 23:24:00+00:00,322.0,8.01,312.0,14.05,12.25,47.59359,-54.27349
2024-01-09 23:34:00+00:00,316.0,9.76,305.0,13.17,12.25,47.59359,-54.27349
2024-01-09 23:44:00+00:00,312.0,11.36,309.0,14.41,12.25,47.59359,-54.27349
2024-01-09 23:54:00+00:00,312.0,11.27,306.0,15.66,12.25,47.59359,-54.27349
